• In Hungary
  • List of Countries
  • For 7 days
  • Water Temperature
  • Satellite Maps
  • Weather Map
  • News
  • Weather Widgets
  • user-avatar
    Login

    Hourly Weather Prachatice

    Today, 23 June, Saturday

    Time Temperature Precipitation Wind Pressure Humidity
    00:00 +5°C° 0 mm 3 mps 706 mmHg 94%
    01:00 +6°C° 0 mm 2 mps 706 mmHg 94%
    02:00 +5°C° 0 mm 2 mps 706 mmHg 95%
    03:00 +5°C° 0 mm 2 mps 706 mmHg 96%
    04:00 +5°C° 0 mm 2 mps 706 mmHg 97%
    05:00 +6°C° 0 mm 2 mps 706 mmHg 93%
    06:00 +7°C° 0 mm 3 mps 706 mmHg 89%
    07:00 +9°C° 0 mm 3 mps 706 mmHg 84%
    08:00 +10°C° 0.1 mm 4 mps 706 mmHg 81%
    09:00 +10°C° 0.1 mm 4 mps 706 mmHg 77%
    10:00 +10°C° 0.1 mm 5 mps 706 mmHg 73%
    11:00 +12°C° 0.1 mm 5 mps 706 mmHg 68%
    12:00 +12°C° 0.1 mm 5 mps 706 mmHg 64%
    13:00 +13°C° 0.1 mm 5 mps 706 mmHg 59%
    14:00 +13°C° 0.1 mm 5 mps 706 mmHg 61%
    15:00 +13°C° 0.1 mm 5 mps 706 mmHg 63%
    16:00 +13°C° 0.1 mm 5 mps 706 mmHg 65%
    17:00 +12°C° 0.1 mm 4 mps 705 mmHg 70%
    18:00 +11°C° 0.1 mm 4 mps 705 mmHg 75%
    19:00 +10°C° 0.1 mm 3 mps 705 mmHg 80%
    20:00 +10°C° 0.1 mm 3 mps 705 mmHg 83%
    21:00 +9°C° 0.1 mm 2 mps 706 mmHg 86%
    22:00 +8°C° 0.1 mm 2 mps 706 mmHg 89%
    23:00 +8°C° 0 mm 2 mps 706 mmHg 91%

    Tomorrow, 24 June, Sunday

    Time Temperature Precipitation Wind Pressure Humidity
    00:00 +8°C° 0 mm 2 mps 706 mmHg 92%
    01:00 +7°C° 0 mm 2 mps 705 mmHg 94%
    02:00 +7°C° 0 mm 2 mps 705 mmHg 94%
    03:00 +7°C° 0 mm 2 mps 705 mmHg 95%
    04:00 +7°C° 0 mm 2 mps 705 mmHg 95%
    05:00 +8°C° 0 mm 2 mps 705 mmHg 92%
    06:00 +8°C° 0 mm 2 mps 705 mmHg 89%
    07:00 +9°C° 0 mm 2 mps 705 mmHg 86%
    08:00 +10°C° 0 mm 3 mps 705 mmHg 82%
    09:00 +11°C° 0 mm 3 mps 705 mmHg 77%
    10:00 +12°C° 0 mm 3 mps 705 mmHg 72%
    11:00 +13°C° 0.1 mm 3 mps 705 mmHg 69%
    12:00 +14°C° 0.1 mm 3 mps 705 mmHg 66%
    13:00 +14°C° 0.1 mm 3 mps 705 mmHg 63%
    14:00 +16°C° 0.2 mm 3 mps 705 mmHg 64%
    15:00 +16°C° 0.2 mm 3 mps 705 mmHg 64%
    16:00 +16°C° 0.2 mm 3 mps 705 mmHg 65%
    17:00 +14°C° 0.1 mm 3 mps 705 mmHg 69%
    18:00 +14°C° 0.1 mm 2 mps 704 mmHg 74%
    19:00 +13°C° 0.1 mm 2 mps 704 mmHg 78%
    20:00 +13°C° 0.2 mm 2 mps 704 mmHg 82%
    21:00 +12°C° 0.2 mm 1 mps 704 mmHg 85%
    22:00 +11°C° 0.2 mm 1 mps 705 mmHg 89%
    23:00 +11°C° 0.4 mm 1 mps 704 mmHg 90%

    Day after tomorrow, 25 June, Monday

    Time Temperature Precipitation Wind Pressure Humidity
    00:00 +10°C° 0.4 mm 1 mps 704 mmHg 92%
    01:00 +10°C° 0.4 mm 1 mps 704 mmHg 93%
    02:00 +10°C° 0.4 mm 1 mps 704 mmHg 94%
    03:00 +10°C° 0.4 mm 1 mps 704 mmHg 95%
    04:00 +10°C° 0.4 mm 1 mps 704 mmHg 96%
    05:00 +10°C° 0.2 mm 1 mps 704 mmHg 94%
    06:00 +11°C° 0.2 mm 1 mps 704 mmHg 92%
    07:00 +12°C° 0.2 mm 1 mps 705 mmHg 91%
    08:00 +13°C° 0.4 mm 2 mps 705 mmHg 87%
    09:00 +14°C° 0.4 mm 2 mps 705 mmHg 83%
    10:00 +15°C° 0.4 mm 2 mps 705 mmHg 79%
    11:00 +16°C° 0.6 mm 2 mps 705 mmHg 77%
    12:00 +16°C° 0.6 mm 2 mps 705 mmHg 75%
    13:00 +17°C° 0.6 mm 2 mps 705 mmHg 73%
    14:00 +17°C° 0.5 mm 2 mps 705 mmHg 72%
    15:00 +17°C° 0.5 mm 2 mps 705 mmHg 71%
    16:00 +18°C° 0.5 mm 2 mps 705 mmHg 70%
    17:00 +18°C° 0.4 mm 1 mps 705 mmHg 75%
    18:00 +16°C° 0.4 mm 1 mps 705 mmHg 80%
    19:00 +15°C° 0.4 mm 1 mps 705 mmHg 84%
    20:00 +14°C° 0.2 mm 1 mps 705 mmHg 87%
    21:00 +12°C° 0.2 mm 1 mps 706 mmHg 90%
    22:00 +11°C° 0.2 mm 1 mps 706 mmHg 92%
    23:00 +10°C° 0 mm 1 mps 706 mmHg 93%

    26 June, Tuesday

    Time Temperature Precipitation Wind Pressure Humidity
    00:00 +10°C° 0 mm 1 mps 706 mmHg 94%
    01:00 +10°C° 0 mm 1 mps 706 mmHg 94%
    02:00 +9°C° 0 mm 1 mps 706 mmHg 95%
    03:00 +9°C° 0 mm 1 mps 706 mmHg 95%
    04:00 +9°C° 0 mm 1 mps 706 mmHg 96%
    05:00 +10°C° 0 mm 1 mps 706 mmHg 93%
    06:00 +12°C° 0 mm 1 mps 706 mmHg 90%
    07:00 +13°C° 0 mm 1 mps 707 mmHg 86%
    08:00 +15°C° 0.1 mm 1 mps 707 mmHg 80%
    09:00 +16°C° 0.1 mm 1 mps 707 mmHg 74%
    10:00 +19°C° 0.1 mm 1 mps 707 mmHg 68%
    11:00 +20°C° 0.1 mm 1 mps 707 mmHg 64%
    12:00 +21°C° 0.1 mm 1 mps 707 mmHg 60%
    13:00 +21°C° 0.1 mm 2 mps 707 mmHg 55%
    14:00 +21°C° 0.1 mm 2 mps 707 mmHg 55%
    15:00 +21°C° 0.1 mm 2 mps 707 mmHg 55%
    16:00 +21°C° 0.1 mm 2 mps 707 mmHg 55%
    17:00 +19°C° 0.1 mm 2 mps 707 mmHg 62%
    18:00 +18°C° 0.1 mm 2 mps 707 mmHg 68%
    19:00 +17°C° 0.1 mm 2 mps 707 mmHg 75%
    20:00 +16°C° 0 mm 1 mps 707 mmHg 79%
    21:00 +14°C° 0 mm 1 mps 707 mmHg 84%
    22:00 +12°C° 0 mm 1 mps 707 mmHg 88%
    23:00 +12°C° 0 mm 1 mps 707 mmHg 89%

    27 June, Wednesday

    Time Temperature Precipitation Wind Pressure Humidity
    00:00 +11°C° 0 mm 1 mps 707 mmHg 90%
    01:00 +11°C° 0 mm 1 mps 706 mmHg 91%
    02:00 +11°C° 0 mm 1 mps 706 mmHg 91%
    03:00 +10°C° 0 mm 1 mps 706 mmHg 92%
    04:00 +10°C° 0 mm 1 mps 706 mmHg 93%
    05:00 +12°C° 0 mm 1 mps 707 mmHg 87%
    06:00 +14°C° 0 mm 1 mps 707 mmHg 81%
    07:00 +16°C° 0 mm 1 mps 707 mmHg 75%
    08:00 +17°C° 0 mm 2 mps 707 mmHg 69%
    09:00 +19°C° 0 mm 2 mps 707 mmHg 63%
    10:00 +20°C° 0 mm 3 mps 707 mmHg 57%
    11:00 +21°C° 0.1 mm 3 mps 707 mmHg 55%
    12:00 +21°C° 0.1 mm 3 mps 707 mmHg 54%
    13:00 +21°C° 0.1 mm 3 mps 706 mmHg 53%
    14:00 +21°C° 0 mm 3 mps 706 mmHg 53%
    15:00 +22°C° 0 mm 4 mps 706 mmHg 53%
    16:00 +22°C° 0 mm 4 mps 706 mmHg 53%
    17:00 +20°C° 0 mm 3 mps 706 mmHg 59%
    18:00 +19°C° 0 mm 3 mps 706 mmHg 65%
    19:00 +18°C° 0 mm 2 mps 705 mmHg 71%
    20:00 +16°C° 0 mm 2 mps 705 mmHg 76%
    21:00 +15°C° 0 mm 2 mps 705 mmHg 82%
    22:00 +13°C° 0 mm 1 mps 705 mmHg 87%
    23:00 +13°C° 0 mm 1 mps 704 mmHg 89%

    28 June, Thursday

    Time Temperature Precipitation Wind Pressure Humidity
    00:00 +12°C° 0 mm 1 mps 704 mmHg 90%
    01:00 +12°C° 0 mm 1 mps 704 mmHg 92%
    02:00 +11°C° 0 mm 1 mps 704 mmHg 92%
    03:00 +11°C° 0 mm 1 mps 703 mmHg 93%
    04:00 +11°C° 0 mm 1 mps 703 mmHg 94%
    05:00 +12°C° 0 mm 1 mps 703 mmHg 89%
    06:00 +14°C° 0 mm 2 mps 703 mmHg 85%
    07:00 +15°C° 0 mm 2 mps 704 mmHg 80%
    08:00 +16°C° 0.3 mm 2 mps 703 mmHg 78%
    09:00 +17°C° 0.3 mm 3 mps 703 mmHg 76%
    10:00 +18°C° 0.3 mm 3 mps 703 mmHg 74%
    11:00 +18°C° 0.9 mm 3 mps 703 mmHg 75%
    12:00 +18°C° 0.9 mm 3 mps 702 mmHg 75%
    13:00 +19°C° 0.9 mm 3 mps 702 mmHg 75%
    14:00 +18°C° 0.9 mm 3 mps 702 mmHg 76%
    15:00 +18°C° 0.9 mm 2 mps 702 mmHg 77%
    16:00 +18°C° 0.9 mm 2 mps 701 mmHg 77%
    17:00 +17°C° 0.5 mm 2 mps 701 mmHg 81%
    18:00 +17°C° 0.5 mm 2 mps 701 mmHg 85%
    19:00 +16°C° 0.5 mm 2 mps 701 mmHg 89%
    20:00 +15°C° 0 mm 1 mps 700 mmHg 91%
    21:00 +13°C° 0 mm 1 mps 700 mmHg 93%
    22:00 +12°C° 0 mm 1 mps 700 mmHg 95%
    23:00 +12°C° 0 mm 1 mps 699 mmHg 96%
    Show more